{"data":{"norad_id":67580,"intl_designator":"2026-016V","name":"STARLINK-36612","alt_names":[],"object_type":"PAYLOAD","status":"ACTIVE","operator":null,"country":"US","launch_date":"2026-01-25","launch_site_code":"AFWTR","launch_vehicle":null,"mission":null,"orbit_class":"UNKNOWN","rcs_meters":null,"size_class":null,"mass_kg":null,"dimensions":null,"purposes":["comms"],"wikipedia_slug":null,"has_3d_model":false,"image_url":null,"decayed_at":null,"tle_current":{"epoch":"2026-09-19T09:15:25.819200Z","epoch_age_seconds":168543,"freshness":"FRESH","line1":"1 67580U 26016V   26262.38571550  .00020312  00000+0  62936-3 0  9999","line2":"2 67580  97.2853 321.1262 0000792 115.5935 244.5390 15.33467837 36559","mean_motion":15.33467837,"eccentricity":7.92e-5,"inclination_deg":97.2853,"raan_deg":321.1262,"arg_perigee_deg":115.5935,"mean_anomaly_deg":244.539,"bstar":0.00062936,"rev_number":3655,"period_min":93.904806169078,"perigee_km":464.93321438808,"apogee_km":466.01724256507,"semimajor_km":6843.6122284766,"source":"CELESTRAK","updated_at":"2026-09-20T09:00:43.578385Z"}}}